Tracking 32938 objects as of 13-Jan-2026
HD Live streaming from Space Station
objects crossing your sky now

STARLINK-32127

Track STARLINK-32127 now!
10-day predictions
STARLINK-32127 is classified as:


NORAD ID: 60146
Int'l Code: 2024-120M
Perigee: 481.6 km
Apogee: 483.0 km
Inclination: 53.2 °
Period: 94.1 minutes
Semi major axis: 6853 km
RCS: Unknown
Launch date: June 27, 2024
Source: United States (US)
Launch site: AIR FORCE EASTERN TEST RANGE (AFETR)
Your satellite tracking list
Your tracking list is empty




NASA's NSSDC Master Catalog

Two Line Element Set (TLE):
1 60146U 24120M   26012.86463545 -.00006874  00000-0 -22003-3 0  9995
2 60146  53.1595 218.9035 0001008  90.0113 270.1004 15.30220096 87836
Source of the keplerian elements: AFSPC